{"data":{"norad_id":51992,"intl_designator":"2022-025AN","name":"STARLINK-3643","alt_names":[],"object_type":"PAYLOAD","status":"ACTIVE","operator":null,"country":"US","launch_date":"2022-03-09","launch_site_code":"AFETR","launch_vehicle":null,"mission":null,"orbit_class":"UNKNOWN","rcs_meters":null,"size_class":null,"mass_kg":null,"dimensions":null,"purposes":["comms"],"wikipedia_slug":null,"has_3d_model":false,"image_url":null,"decayed_at":null,"tle_current":{"epoch":"2026-05-25T02:37:59.871936Z","epoch_age_seconds":62224,"freshness":"FRESH","line1":"1 51992U 22025AN  26145.10972074 -.00004961  00000+0 -29361-3 0  9990","line2":"2 51992  53.2147  36.0566 0001736  96.2096 263.9094 15.08865567232444","mean_motion":15.08865567,"eccentricity":0.0001736,"inclination_deg":53.2147,"raan_deg":36.0566,"arg_perigee_deg":96.2096,"mean_anomaly_deg":263.9094,"bstar":-0.00029361,"rev_number":23244,"period_min":95.435937534387,"perigee_km":538.46431150762,"apogee_km":540.86617244603,"semimajor_km":6917.8022419768,"source":"CELESTRAK","updated_at":"2026-05-25T13:38:16.997961Z"}}}